^^
Datos históricos de la estación: Murcia-Puente Tocinos
Diario Informe para Mayo 12, 2019 Unidades:  Métrico    Inglés   Ambas
Diario Semanal Mensual Anual Configurable
  Máximo: Mínimo: Media:
Temperatura: 25.1 °C 17.9 °C 20.8 °C
Punto de rocio: 15.6 °C 11.6 °C 13.4 °C
Humedad: 85% 45% 64%
Velocidad viento: 16.4km/h 1.6km/h 8.6km/h
Racha viento: 27.8km/h - -
Viento- - East
Presión: 1023.0 hPa 1017.6 hPa -
Precipitación: 0.0 mm    
Historical Graphs
 
 
Tabla de datos para Mayo 12, 2019
Hora Temperatura Punto de rocio Presión Viento Velocidad viento Racha viento Humedad Intensidad lluvia(por hora) Nubes
00:00 20.8 °C 12.2 °C 1020.1 hPa NNW 3.2 km/h 6.4 km/h 58% 0.0 mm CLR
00:05 20.7 °C 12.4 °C 1020.3 hPa NNW 3.2 km/h 7.4 km/h 59% 0.0 mm CLR
00:10 20.7 °C 12.4 °C 1020.3 hPa NNE 3.2 km/h 5.6 km/h 59% 0.0 mm CLR
00:15 20.6 °C 12.3 °C 1020.3 hPa NE 3.2 km/h 7.4 km/h 59% 0.0 mm CLR
00:20 20.5 °C 12.2 °C 1020.4 hPa NE 4.7 km/h 5.8 km/h 59% 0.0 mm CLR
00:25 20.5 °C 12.2 °C 1020.4 hPa NE 4.7 km/h 5.6 km/h 59% 0.0 mm CLR
00:30 20.5 °C 12.4 °C 1020.4 hPa NE 3.2 km/h 3.9 km/h 60% 0.0 mm CLR
00:35 20.4 °C 12.4 °C 1020.4 hPa NE 3.2 km/h 3.7 km/h 60% 0.0 mm CLR
00:40 20.3 °C 12.3 °C 1020.4 hPa NE 2.3 km/h 3.7 km/h 60% 0.0 mm CLR
00:45 20.3 °C 12.3 °C 1020.4 hPa NE 2.3 km/h 3.7 km/h 60% 0.0 mm CLR
00:50 20.3 °C 12.6 °C 1020.6 hPa NE 2.9 km/h 1.9 km/h 61% 0.0 mm CLR
00:55 20.3 °C 12.6 °C 1020.6 hPa NE 2.9 km/h 5.6 km/h 61% 0.0 mm CLR
01:00 20.2 °C 12.4 °C 1020.6 hPa NE 1.6 km/h 4.8 km/h 61% 0.0 mm CLR
01:05 20.1 °C 12.3 °C 1020.8 hPa NE 2.3 km/h 7.4 km/h 61% 0.0 mm CLR
01:10 20.1 °C 12.3 °C 1020.8 hPa NE 4.7 km/h 7.4 km/h 61% 0.0 mm CLR
01:15 20.1 °C 12.3 °C 1020.8 hPa NE 4.7 km/h 7.6 km/h 61% 0.0 mm CLR
01:20 20.0 °C 12.5 °C 1020.9 hPa NNE 5.0 km/h 9.3 km/h 62% 0.0 mm CLR
01:25 20.0 °C 12.5 °C 1020.9 hPa NE 5.0 km/h 13.0 km/h 62% 0.0 mm CLR
01:30 19.9 °C 12.4 °C 1020.9 hPa ENE 6.9 km/h 7.4 km/h 62% 0.0 mm CLR
01:35 19.9 °C 12.4 °C 1021.1 hPa NE 6.9 km/h 11.1 km/h 62% 0.0 mm CLR
01:40 19.9 °C 12.4 °C 1021.1 hPa NE 7.6 km/h 9.3 km/h 62% 0.0 mm CLR
01:45 19.9 °C 12.7 °C 1021.1 hPa NE 7.6 km/h 9.3 km/h 63% 0.0 mm CLR
01:50 19.8 °C 12.6 °C 1021.2 hPa NE 6.4 km/h 9.3 km/h 63% 0.0 mm CLR
01:55 19.8 °C 12.6 °C 1021.2 hPa NE 6.4 km/h 7.4 km/h 63% 0.0 mm CLR
02:00 19.7 °C 12.7 °C 1021.2 hPa NE 4.8 km/h 9.7 km/h 64% 0.0 mm CLR
02:05 19.6 °C 12.6 °C 1021.3 hPa NNE 5.8 km/h 7.6 km/h 64% 0.0 mm CLR
02:10 19.4 °C 12.7 °C 1021.3 hPa NNE 5.0 km/h 7.4 km/h 65% 0.0 mm CLR
02:15 19.3 °C 12.8 °C 1021.3 hPa North 5.0 km/h 7.4 km/h 66% 0.0 mm CLR
02:20 19.3 °C 12.8 °C 1021.4 hPa NNE 4.7 km/h 9.3 km/h 66% 0.0 mm CLR
02:25 19.2 °C 12.9 °C 1021.4 hPa NE 4.7 km/h 9.5 km/h 67% 0.0 mm CLR
02:30 19.1 °C 12.8 °C 1021.4 hPa ENE 6.9 km/h 13.0 km/h 67% 0.0 mm CLR
02:35 18.9 °C 12.9 °C 1021.3 hPa North 6.9 km/h 7.4 km/h 68% 0.0 mm CLR
02:40 18.8 °C 13.0 °C 1021.3 hPa North 6.4 km/h 9.3 km/h 69% 0.0 mm CLR
02:45 18.7 °C 13.1 °C 1021.3 hPa ENE 6.4 km/h 13.0 km/h 70% 0.0 mm CLR
02:50 18.6 °C 13.4 °C 1021.4 hPa North 6.9 km/h 14.8 km/h 72% 0.0 mm CLR
02:55 18.6 °C 14.1 °C 1021.4 hPa NE 6.9 km/h 16.7 km/h 75% 0.0 mm CLR
03:00 18.6 °C 14.5 °C 1021.4 hPa NE 9.7 km/h 19.3 km/h 77% 0.0 mm CLR
03:05 18.6 °C 14.9 °C 1021.5 hPa NNE 9.5 km/h 16.7 km/h 79% 0.0 mm CLR
03:10 18.6 °C 15.1 °C 1021.5 hPa NNE 11.9 km/h 16.7 km/h 80% 0.0 mm CLR
03:15 18.5 °C 15.2 °C 1021.5 hPa NNE 11.9 km/h 14.8 km/h 81% 0.0 mm CLR
03:20 18.5 °C 15.4 °C 1021.5 hPa NNE 11.1 km/h 16.7 km/h 82% 0.0 mm CLR
03:25 18.4 °C 15.3 °C 1021.5 hPa NE 11.1 km/h 10.0 km/h 82% 0.0 mm CLR
03:30 18.4 °C 15.3 °C 1021.5 hPa NE 8.7 km/h 14.8 km/h 82% 0.0 mm CLR
03:35 18.3 °C 15.4 °C 1021.6 hPa ENE 8.7 km/h 13.0 km/h 83% 0.0 mm CLR
03:40 18.2 °C 15.3 °C 1021.6 hPa NE 9.5 km/h 11.1 km/h 83% 0.0 mm CLR
03:45 18.2 °C 15.3 °C 1021.6 hPa NNE 9.5 km/h 9.5 km/h 83% 0.0 mm CLR
03:50 18.1 °C 15.2 °C 1021.7 hPa ENE 7.6 km/h 10.3 km/h 83% 0.0 mm CLR
03:55 18.1 °C 15.2 °C 1021.7 hPa NE 7.6 km/h 9.3 km/h 83% 0.0 mm CLR
04:00 18.0 °C 15.3 °C 1021.7 hPa NE 8.0 km/h 12.9 km/h 84% 0.0 mm CLR
04:05 18.0 °C 15.3 °C 1021.8 hPa NE 7.6 km/h 11.1 km/h 84% 0.0 mm CLR
04:10 17.9 °C 15.2 °C 1021.8 hPa NE 6.9 km/h 9.3 km/h 84% 0.0 mm CLR
04:15 17.9 °C 15.2 °C 1021.8 hPa NNE 6.9 km/h 9.3 km/h 84% 0.0 mm CLR
04:20 17.9 °C 15.2 °C 1021.8 hPa North 5.0 km/h 7.4 km/h 84% 0.0 mm CLR
04:25 17.9 °C 15.2 °C 1021.8 hPa NE 5.0 km/h 6.4 km/h 84% 0.0 mm CLR
04:30 17.9 °C 15.2 °C 1021.8 hPa NE 4.7 km/h 7.4 km/h 84% 0.0 mm CLR
04:35 18.0 °C 15.3 °C 1021.8 hPa ENE 4.7 km/h 7.4 km/h 84% 0.0 mm CLR
04:40 18.1 °C 15.3 °C 1021.8 hPa NE 4.7 km/h 7.4 km/h 84% 0.0 mm CLR
04:45 18.1 °C 15.3 °C 1021.8 hPa NE 4.7 km/h 7.6 km/h 84% 0.0 mm CLR
04:50 18.2 °C 15.4 °C 1021.9 hPa NE 5.0 km/h 11.1 km/h 84% 0.0 mm CLR
04:55 18.2 °C 15.4 °C 1021.9 hPa ENE 5.0 km/h 9.3 km/h 84% 0.0 mm CLR
05:00 18.2 °C 15.4 °C 1021.9 hPa NE 4.8 km/h 9.7 km/h 84% 0.0 mm CLR
05:05 18.2 °C 15.4 °C 1022.0 hPa NE 5.8 km/h 8.7 km/h 84% 0.0 mm CLR
05:10 18.2 °C 15.4 °C 1022.0 hPa NE 6.9 km/h 11.1 km/h 84% 0.0 mm CLR
05:15 18.3 °C 15.6 °C 1022.0 hPa NE 6.9 km/h 9.3 km/h 84% 0.0 mm CLR
05:20 18.3 °C 15.6 °C 1022.1 hPa NE 6.4 km/h 10.0 km/h 84% 0.0 mm CLR
05:25 18.3 °C 15.6 °C 1022.1 hPa NE 6.4 km/h 9.3 km/h 84% 0.0 mm CLR
05:30 18.3 °C 15.6 °C 1022.1 hPa ENE 8.4 km/h 13.0 km/h 84% 0.0 mm CLR
05:35 18.3 °C 15.6 °C 1022.1 hPa North 8.4 km/h 10.0 km/h 84% 0.0 mm CLR
05:40 18.3 °C 15.6 °C 1022.1 hPa ENE 8.4 km/h 11.1 km/h 84% 0.0 mm CLR
05:45 18.3 °C 15.4 °C 1022.1 hPa NE 8.4 km/h 10.0 km/h 83% 0.0 mm CLR
05:50 18.3 °C 15.4 °C 1022.1 hPa NNE 7.6 km/h 11.9 km/h 83% 0.0 mm CLR
05:55 18.3 °C 15.4 °C 1022.1 hPa North 7.6 km/h 9.3 km/h 83% 0.0 mm CLR
06:00 18.3 °C 15.4 °C 1022.1 hPa NNE 8.0 km/h 12.9 km/h 83% 0.0 mm CLR
06:05 18.3 °C 15.4 °C 1022.1 hPa North 6.9 km/h 14.8 km/h 83% 0.0 mm CLR
06:10 18.3 °C 15.6 °C 1022.1 hPa NE 8.7 km/h 11.1 km/h 84% 0.0 mm CLR
06:15 18.2 °C 15.4 °C 1022.1 hPa NNE 8.7 km/h 13.0 km/h 84% 0.0 mm CLR
06:20 18.2 °C 15.4 °C 1022.1 hPa NE 8.4 km/h 16.1 km/h 84% 0.0 mm CLR
06:25 18.2 °C 15.4 °C 1022.1 hPa NNE 8.4 km/h 14.8 km/h 84% 0.0 mm CLR
06:30 18.2 °C 15.6 °C 1022.1 hPa NE 9.5 km/h 18.5 km/h 85% 0.0 mm CLR
06:35 18.1 °C 15.6 °C 1022.1 hPa North 9.5 km/h 16.7 km/h 85% 0.0 mm CLR
06:40 18.2 °C 15.6 °C 1022.1 hPa NNE 12.2 km/h 16.7 km/h 85% 0.0 mm CLR
06:45 18.2 °C 15.6 °C 1022.1 hPa NNE 12.2 km/h 14.8 km/h 85% 0.0 mm CLR
06:50 18.2 °C 15.6 °C 1022.3 hPa NE 10.3 km/h 13.0 km/h 85% 0.0 mm CLR
06:55 18.2 °C 15.4 °C 1022.3 hPa NE 10.3 km/h 13.0 km/h 84% 0.0 mm CLR
07:00 18.2 °C 15.4 °C 1022.3 hPa NE 11.3 km/h 19.3 km/h 84% 0.0 mm CLR
07:05 18.2 °C 15.4 °C 1022.3 hPa NE 10.3 km/h 16.7 km/h 84% 0.0 mm CLR
07:10 18.2 °C 15.3 °C 1022.3 hPa NE 11.1 km/h 27.8 km/h 83% 0.0 mm CLR
07:15 18.1 °C 15.2 °C 1022.3 hPa NNE 11.1 km/h 25.9 km/h 83% 0.0 mm CLR
07:20 18.2 °C 15.3 °C 1022.4 hPa ENE 14.8 km/h 24.5 km/h 83% 0.0 mm CLR
07:25 18.2 °C 15.1 °C 1022.4 hPa NNE 14.8 km/h 20.4 km/h 82% 0.0 mm CLR
07:30 18.1 °C 14.8 °C 1022.4 hPa NE 14.8 km/h 18.5 km/h 81% 0.0 mm CLR
07:35 18.1 °C 14.8 °C 1022.6 hPa NE 14.8 km/h 16.7 km/h 81% 0.0 mm CLR
07:40 18.1 °C 14.8 °C 1022.6 hPa NE 13.7 km/h 16.7 km/h 81% 0.0 mm CLR
07:45 18.1 °C 14.8 °C 1022.6 hPa NE 13.7 km/h 22.2 km/h 81% 0.0 mm CLR
07:50 18.0 °C 14.9 °C 1022.6 hPa NNE 11.9 km/h 13.0 km/h 82% 0.0 mm CLR
07:55 18.0 °C 14.9 °C 1022.6 hPa NE 11.9 km/h 18.3 km/h 82% 0.0 mm CLR
08:00 18.0 °C 14.9 °C 1022.6 hPa NE 9.7 km/h 19.3 km/h 82% 0.0 mm CLR
08:05 18.0 °C 14.9 °C 1022.7 hPa NNE 10.0 km/h 13.0 km/h 82% 0.0 mm CLR
08:10 18.1 °C 15.0 °C 1022.7 hPa NE 8.7 km/h 9.5 km/h 82% 0.0 mm CLR
08:15 18.1 °C 15.2 °C 1022.7 hPa NE 8.7 km/h 13.0 km/h 83% 0.0 mm CLR
08:20 18.0 °C 15.1 °C 1022.8 hPa ENE 9.5 km/h 18.5 km/h 83% 0.0 mm CLR
08:25 18.0 °C 15.1 °C 1022.8 hPa NE 9.5 km/h 14.8 km/h 83% 0.0 mm CLR
08:30 18.1 °C 15.2 °C 1022.8 hPa NE 10.3 km/h 13.0 km/h 83% 0.0 mm CLR
08:35 18.1 °C 15.0 °C 1022.9 hPa ENE 10.3 km/h 13.0 km/h 82% 0.0 mm CLR
08:40 18.2 °C 15.1 °C 1022.9 hPa NE 8.7 km/h 11.1 km/h 82% 0.0 mm CLR
08:45 18.3 °C 15.0 °C 1022.9 hPa NE 8.7 km/h 13.7 km/h 81% 0.0 mm CLR
08:50 18.3 °C 15.0 °C 1022.9 hPa NE 9.5 km/h 13.0 km/h 81% 0.0 mm CLR
08:55 18.4 °C 14.9 °C 1022.9 hPa NNE 9.5 km/h 16.7 km/h 80% 0.0 mm CLR
09:00 18.5 °C 15.0 °C 1022.9 hPa NE 9.7 km/h 20.9 km/h 80% 0.0 mm CLR
09:05 18.7 °C 15.0 °C 1022.9 hPa NNE 10.0 km/h 14.8 km/h 79% 0.0 mm CLR
09:10 18.7 °C 14.8 °C 1022.9 hPa ESE 10.3 km/h 14.8 km/h 78% 0.0 mm CLR
09:15 18.9 °C 15.0 °C 1022.9 hPa NNE 10.3 km/h 12.2 km/h 78% 0.0 mm CLR
09:20 19.1 °C 14.8 °C 1023.0 hPa NNE 8.4 km/h 18.0 km/h 76% 0.0 mm CLR
09:25 19.0 °C 14.4 °C 1023.0 hPa NE 8.4 km/h 14.8 km/h 75% 0.0 mm CLR
09:30 18.8 °C 14.1 °C 1023.0 hPa NNE 10.0 km/h 14.8 km/h 74% 0.0 mm CLR
09:35 18.8 °C 14.5 °C 1023.0 hPa NE 10.0 km/h 9.3 km/h 76% 0.0 mm CLR
09:40 18.9 °C 14.6 °C 1023.0 hPa North 7.6 km/h 11.1 km/h 76% 0.0 mm CLR
09:45 19.2 °C 14.4 °C 1023.0 hPa ENE 7.6 km/h 13.0 km/h 74% 0.0 mm CLR
09:50 19.4 °C 14.2 °C 1022.9 hPa East 8.4 km/h 16.7 km/h 72% 0.0 mm CLR
09:55 19.4 °C 14.2 °C 1022.9 hPa ENE 8.4 km/h 11.1 km/h 72% 0.0 mm CLR
10:00 19.5 °C 14.3 °C 1022.9 hPa NNE 8.0 km/h 11.3 km/h 72% 0.0 mm CLR
10:05 19.7 °C 14.5 °C 1022.9 hPa ENE 8.4 km/h 11.1 km/h 72% 0.0 mm CLR
10:10 19.7 °C 14.5 °C 1022.9 hPa NNE 5.8 km/h 9.5 km/h 72% 0.0 mm CLR
10:15 20.1 °C 14.9 °C 1022.9 hPa ENE 5.8 km/h 5.6 km/h 72% 0.0 mm CLR
10:20 20.5 °C 14.4 °C 1022.8 hPa East 4.7 km/h 13.0 km/h 68% 0.0 mm CLR
10:25 20.5 °C 14.4 °C 1022.8 hPa North 4.7 km/h 7.4 km/h 68% 0.0 mm CLR
10:30 20.6 °C 14.3 °C 1022.8 hPa NE 6.4 km/h 11.1 km/h 67% 0.0 mm CLR
10:35 20.6 °C 14.0 °C 1022.8 hPa NE 6.4 km/h 13.0 km/h 66% 0.0 mm CLR
10:40 20.4 °C 14.3 °C 1022.8 hPa NE 8.4 km/h 5.6 km/h 68% 0.0 mm CLR
10:45 20.4 °C 14.3 °C 1022.8 hPa North 8.4 km/h 11.1 km/h 68% 0.0 mm CLR
10:50 20.4 °C 14.3 °C 1022.8 hPa NNE 5.8 km/h 9.3 km/h 68% 0.0 mm CLR
10:55 20.4 °C 14.1 °C 1022.8 hPa NE 5.8 km/h 11.1 km/h 67% 0.0 mm CLR
11:00 20.3 °C 13.9 °C 1022.8 hPa NE 4.8 km/h 17.7 km/h 67% 0.0 mm CLR
11:05 20.5 °C 14.2 °C 1022.6 hPa NNE 5.0 km/h 8.7 km/h 67% 0.0 mm CLR
11:10 20.7 °C 13.9 °C 1022.6 hPa ENE 5.8 km/h 13.0 km/h 65% 0.0 mm CLR
11:15 20.7 °C 13.7 °C 1022.6 hPa North 5.8 km/h 14.8 km/h 64% 0.0 mm CLR
11:20 20.7 °C 13.9 °C 1022.5 hPa NE 9.5 km/h 14.8 km/h 65% 0.0 mm CLR
11:25 20.7 °C 13.7 °C 1022.5 hPa North 9.5 km/h 11.1 km/h 64% 0.0 mm CLR
11:30 21.1 °C 14.0 °C 1022.5 hPa NE 8.4 km/h 22.2 km/h 64% 0.0 mm CLR
11:35 21.1 °C 14.0 °C 1022.5 hPa East 8.4 km/h 13.0 km/h 64% 0.0 mm CLR
11:40 21.4 °C 13.8 °C 1022.5 hPa NW 8.7 km/h 9.3 km/h 62% 0.0 mm CLR
11:45 21.6 °C 14.0 °C 1022.5 hPa North 8.7 km/h 7.4 km/h 62% 0.0 mm CLR
11:50 21.9 °C 13.5 °C 1022.5 hPa NE 5.0 km/h 13.0 km/h 59% 0.0 mm CLR
11:55 21.8 °C 13.4 °C 1022.5 hPa NNE 5.0 km/h 14.8 km/h 59% 0.0 mm CLR
12:00 21.7 °C 13.4 °C 1022.5 hPa NE 9.7 km/h 22.5 km/h 59% 0.0 mm CLR
12:05 21.7 °C 13.3 °C 1022.3 hPa ENE 10.0 km/h 14.8 km/h 59% 0.0 mm CLR
12:10 21.8 °C 13.4 °C 1022.3 hPa ENE 8.7 km/h 14.8 km/h 59% 0.0 mm CLR
12:15 21.9 °C 13.3 °C 1022.3 hPa SE 8.7 km/h 9.3 km/h 58% 0.0 mm CLR
12:20 22.1 °C 13.2 °C 1022.3 hPa ESE 8.4 km/h 14.8 km/h 57% 0.0 mm CLR
12:25 21.9 °C 13.3 °C 1022.3 hPa SE 8.4 km/h 13.0 km/h 58% 0.0 mm CLR
12:30 21.9 °C 13.3 °C 1022.3 hPa SE 7.6 km/h 11.1 km/h 58% 0.0 mm CLR
12:35 21.9 °C 13.3 °C 1022.2 hPa ENE 7.6 km/h 11.1 km/h 58% 0.0 mm CLR
12:40 21.9 °C 13.3 °C 1022.2 hPa NE 7.6 km/h 3.7 km/h 58% 0.0 mm CLR
12:45 22.1 °C 13.2 °C 1022.2 hPa ESE 7.6 km/h 8.4 km/h 57% 0.0 mm CLR
12:50 22.3 °C 13.4 °C 1022.1 hPa ESE 3.9 km/h 11.1 km/h 57% 0.0 mm CLR
12:55 22.4 °C 13.2 °C 1022.1 hPa ESE 3.9 km/h 9.3 km/h 56% 0.0 mm CLR
13:00 22.4 °C 12.9 °C 1022.1 hPa East 8.0 km/h 14.5 km/h 55% 0.0 mm CLR
13:05 22.3 °C 12.8 °C 1022.0 hPa South 6.9 km/h 13.0 km/h 55% 0.0 mm CLR
13:10 22.4 °C 12.9 °C 1022.0 hPa NE 6.9 km/h 11.1 km/h 55% 0.0 mm CLR
13:15 22.4 °C 12.9 °C 1022.0 hPa NE 6.9 km/h 9.3 km/h 55% 0.0 mm CLR
13:20 22.6 °C 13.1 °C 1021.7 hPa NE 6.9 km/h 11.1 km/h 55% 0.0 mm CLR
13:25 22.6 °C 12.6 °C 1021.7 hPa WNW 6.9 km/h 1.9 km/h 53% 0.0 mm CLR
13:30 22.8 °C 12.7 °C 1021.7 hPa ESE 3.9 km/h 7.4 km/h 53% 0.0 mm CLR
13:35 23.1 °C 12.7 °C 1021.4 hPa SSW 3.9 km/h 9.3 km/h 52% 0.0 mm CLR
13:40 23.3 °C 12.6 °C 1021.4 hPa SW 3.9 km/h 11.1 km/h 51% 0.0 mm CLR
13:45 23.6 °C 12.6 °C 1021.4 hPa West 3.9 km/h 15.6 km/h 50% 0.0 mm CLR
13:50 23.6 °C 12.3 °C 1021.3 hPa SSW 5.0 km/h 8.4 km/h 49% 0.0 mm CLR
13:55 23.6 °C 12.3 °C 1021.3 hPa WSW 5.0 km/h 7.4 km/h 49% 0.0 mm CLR
14:00 23.8 °C 12.4 °C 1021.3 hPa WSW 3.2 km/h 8.0 km/h 49% 0.0 mm CLR
14:05 24.1 °C 12.4 °C 1021.1 hPa WNW 4.7 km/h 7.4 km/h 48% 0.0 mm CLR
14:10 24.2 °C 12.5 °C 1021.1 hPa NE 5.0 km/h 14.8 km/h 48% 0.0 mm CLR
14:15 24.0 °C 12.3 °C 1021.1 hPa NE 5.0 km/h 11.1 km/h 48% 0.0 mm CLR
14:20 24.1 °C 12.4 °C 1021.0 hPa NNW 6.9 km/h 2.3 km/h 48% 0.0 mm CLR
14:25 24.2 °C 12.2 °C 1021.0 hPa ENE 6.9 km/h 11.1 km/h 47% 0.0 mm CLR
14:30 24.3 °C 12.6 °C 1021.0 hPa ENE 4.7 km/h 11.1 km/h 48% 0.0 mm CLR
14:35 24.4 °C 12.7 °C 1020.6 hPa ENE 4.7 km/h 18.5 km/h 48% 0.0 mm CLR
14:40 24.4 °C 12.7 °C 1020.6 hPa North 7.6 km/h 11.1 km/h 48% 0.0 mm CLR
14:45 24.2 °C 12.2 °C 1020.6 hPa NE 7.6 km/h 9.3 km/h 47% 0.0 mm CLR
14:50 24.1 °C 12.1 °C 1020.5 hPa North 6.9 km/h 11.1 km/h 47% 0.0 mm CLR
14:55 24.3 °C 12.3 °C 1020.5 hPa NNE 6.9 km/h 7.4 km/h 47% 0.0 mm CLR
15:00 24.5 °C 12.4 °C 1020.5 hPa North 8.0 km/h 12.9 km/h 47% 0.0 mm CLR
15:05 24.7 °C 12.3 °C 1020.3 hPa East 6.4 km/h 13.0 km/h 46% 0.0 mm CLR
15:10 24.6 °C 12.2 °C 1020.3 hPa NE 7.6 km/h 14.8 km/h 46% 0.0 mm CLR
15:15 24.4 °C 12.3 °C 1020.3 hPa East 7.6 km/h 9.3 km/h 47% 0.0 mm CLR
15:20 24.8 °C 12.7 °C 1019.9 hPa ENE 6.4 km/h 13.0 km/h 47% 0.0 mm CLR
15:25 24.9 °C 12.2 °C 1019.9 hPa SE 6.4 km/h 18.5 km/h 45% 0.0 mm CLR
15:30 24.8 °C 12.4 °C 1019.9 hPa East 8.7 km/h 20.4 km/h 46% 0.0 mm CLR
15:35 24.9 °C 12.5 °C 1019.7 hPa SE 8.7 km/h 24.5 km/h 46% 0.0 mm CLR
15:40 24.8 °C 12.4 °C 1019.7 hPa South 13.0 km/h 13.0 km/h 46% 0.0 mm CLR
15:45 24.9 °C 12.5 °C 1019.7 hPa NNE 13.0 km/h 18.5 km/h 46% 0.0 mm CLR
15:50 25.1 °C 12.7 °C 1019.5 hPa ESE 8.4 km/h 13.0 km/h 46% 0.0 mm CLR
15:55 25.1 °C 12.3 °C 1019.5 hPa SSE 8.4 km/h 13.7 km/h 45% 0.0 mm CLR
16:00 25.0 °C 12.6 °C 1019.5 hPa ESE 9.7 km/h 19.3 km/h 46% 0.0 mm CLR
16:05 25.1 °C 12.7 °C 1019.3 hPa East 8.7 km/h 14.8 km/h 46% 0.0 mm CLR
16:10 25.1 °C 12.7 °C 1019.3 hPa ESE 10.0 km/h 22.2 km/h 46% 0.0 mm CLR
16:15 25.0 °C 12.6 °C 1019.3 hPa East 10.0 km/h 18.5 km/h 46% 0.0 mm CLR
16:20 25.1 °C 12.7 °C 1019.0 hPa East 10.3 km/h 16.7 km/h 46% 0.0 mm CLR
16:25 24.9 °C 12.5 °C 1019.0 hPa NNE 10.3 km/h 24.1 km/h 46% 0.0 mm CLR
16:30 24.8 °C 12.4 °C 1019.0 hPa SE 13.0 km/h 20.4 km/h 46% 0.0 mm CLR
16:35 24.7 °C 12.3 °C 1018.8 hPa NE 13.0 km/h 16.7 km/h 46% 0.0 mm CLR
16:40 24.7 °C 12.3 °C 1018.8 hPa SE 12.2 km/h 25.9 km/h 46% 0.0 mm CLR
16:45 24.6 °C 12.2 °C 1018.8 hPa ESE 12.2 km/h 25.9 km/h 46% 0.0 mm CLR
16:50 24.8 °C 12.4 °C 1018.8 hPa East 15.6 km/h 18.5 km/h 46% 0.0 mm CLR
16:55 24.7 °C 12.3 °C 1018.8 hPa SE 15.6 km/h 24.1 km/h 46% 0.0 mm CLR
17:00 24.7 °C 12.3 °C 1018.8 hPa SE 12.9 km/h 25.7 km/h 46% 0.0 mm CLR
17:05 24.5 °C 12.1 °C 1018.5 hPa SE 13.0 km/h 24.1 km/h 46% 0.0 mm CLR
17:10 24.5 °C 12.1 °C 1018.5 hPa SE 16.1 km/h 24.1 km/h 46% 0.0 mm CLR
17:15 24.4 °C 12.0 °C 1018.5 hPa SSE 16.1 km/h 24.1 km/h 46% 0.0 mm CLR
17:20 24.3 °C 12.3 °C 1018.4 hPa SE 16.1 km/h 22.2 km/h 47% 0.0 mm CLR
17:25 24.3 °C 11.9 °C 1018.4 hPa East 16.1 km/h 25.9 km/h 46% 0.0 mm CLR
17:30 24.2 °C 12.2 °C 1018.4 hPa SE 15.6 km/h 27.8 km/h 47% 0.0 mm CLR
17:35 24.2 °C 12.2 °C 1018.4 hPa SSE 15.6 km/h 16.7 km/h 47% 0.0 mm CLR
17:40 24.0 °C 12.0 °C 1018.4 hPa NE 16.4 km/h 27.8 km/h 47% 0.0 mm CLR
17:45 23.9 °C 11.9 °C 1018.4 hPa ESE 16.4 km/h 25.6 km/h 47% 0.0 mm CLR
17:50 23.8 °C 11.8 °C 1018.4 hPa North 16.4 km/h 14.8 km/h 47% 0.0 mm CLR
17:55 23.9 °C 11.9 °C 1018.4 hPa ESE 16.4 km/h 24.1 km/h 47% 0.0 mm CLR
18:00 24.0 °C 12.0 °C 1018.4 hPa ESE 14.5 km/h 24.1 km/h 47% 0.0 mm CLR
18:05 24.0 °C 12.0 °C 1018.3 hPa ESE 15.6 km/h 25.6 km/h 47% 0.0 mm CLR
18:10 23.8 °C 11.8 °C 1018.3 hPa ESE 14.8 km/h 22.2 km/h 47% 0.0 mm CLR
18:15 23.9 °C 11.9 °C 1018.3 hPa SSE 14.8 km/h 20.4 km/h 47% 0.0 mm CLR
18:20 23.9 °C 11.9 °C 1018.3 hPa ESE 14.0 km/h 24.1 km/h 47% 0.0 mm CLR
18:25 23.8 °C 12.1 °C 1018.3 hPa SE 14.0 km/h 22.2 km/h 48% 0.0 mm CLR
18:30 23.8 °C 11.8 °C 1018.3 hPa ESE 16.1 km/h 25.9 km/h 47% 0.0 mm CLR
18:35 23.8 °C 11.8 °C 1018.3 hPa ESE 16.1 km/h 18.5 km/h 47% 0.0 mm CLR
18:40 24.0 °C 11.7 °C 1018.3 hPa ESE 13.7 km/h 18.5 km/h 46% 0.0 mm CLR
18:45 23.8 °C 11.8 °C 1018.3 hPa SE 13.7 km/h 24.1 km/h 47% 0.0 mm CLR
18:50 23.7 °C 11.7 °C 1018.2 hPa ESE 15.6 km/h 18.5 km/h 47% 0.0 mm CLR
18:55 23.7 °C 11.7 °C 1018.2 hPa SE 15.6 km/h 22.2 km/h 47% 0.0 mm CLR
19:00 23.7 °C 11.7 °C 1018.2 hPa ESE 14.5 km/h 22.5 km/h 47% 0.0 mm CLR
19:05 23.7 °C 11.7 °C 1018.0 hPa ESE 14.8 km/h 20.4 km/h 47% 0.0 mm CLR
19:10 23.6 °C 11.6 °C 1018.0 hPa ESE 14.0 km/h 14.8 km/h 47% 0.0 mm CLR
19:15 23.7 °C 11.7 °C 1018.0 hPa ESE 14.0 km/h 20.4 km/h 47% 0.0 mm CLR
19:20 23.7 °C 11.7 °C 1017.8 hPa ESE 11.9 km/h 24.1 km/h 47% 0.0 mm CLR
19:25 23.4 °C 12.1 °C 1017.8 hPa ESE 11.9 km/h 20.4 km/h 49% 0.0 mm CLR
19:30 23.4 °C 12.1 °C 1017.8 hPa ESE 14.0 km/h 25.9 km/h 49% 0.0 mm CLR
19:35 23.2 °C 11.9 °C 1017.7 hPa SE 14.0 km/h 14.8 km/h 49% 0.0 mm CLR
19:40 23.2 °C 12.2 °C 1017.7 hPa ESE 12.2 km/h 20.4 km/h 50% 0.0 mm CLR
19:45 23.1 °C 12.1 °C 1017.7 hPa SE 12.2 km/h 18.5 km/h 50% 0.0 mm CLR
19:50 22.8 °C 12.1 °C 1017.7 hPa ESE 12.2 km/h 22.2 km/h 51% 0.0 mm CLR
19:55 22.6 °C 11.9 °C 1017.7 hPa ESE 12.2 km/h 18.5 km/h 51% 0.0 mm CLR
20:00 22.6 °C 12.2 °C 1017.7 hPa ESE 12.9 km/h 19.3 km/h 52% 0.0 mm CLR
20:05 22.3 °C 11.9 °C 1017.6 hPa SSE 13.7 km/h 18.5 km/h 52% 0.0 mm CLR
20:10 22.4 °C 12.1 °C 1017.6 hPa ESE 13.0 km/h 16.4 km/h 52% 0.0 mm CLR
20:15 22.3 °C 12.3 °C 1017.6 hPa ESE 13.0 km/h 18.5 km/h 53% 0.0 mm CLR
20:20 22.3 °C 12.3 °C 1017.7 hPa ESE 10.3 km/h 13.0 km/h 53% 0.0 mm CLR
20:25 22.2 °C 12.2 °C 1017.7 hPa East 10.3 km/h 18.5 km/h 53% 0.0 mm CLR
20:30 22.0 °C 12.3 °C 1017.7 hPa SE 10.3 km/h 16.7 km/h 54% 0.0 mm CLR
20:35 21.8 °C 12.1 °C 1017.7 hPa ESE 10.3 km/h 13.0 km/h 54% 0.0 mm CLR
20:40 21.7 °C 12.3 °C 1017.7 hPa ESE 9.5 km/h 11.1 km/h 55% 0.0 mm CLR
20:45 21.7 °C 12.3 °C 1017.7 hPa East 9.5 km/h 16.7 km/h 55% 0.0 mm CLR
20:50 21.5 °C 12.1 °C 1017.8 hPa SE 10.0 km/h 13.0 km/h 55% 0.0 mm CLR
20:55 21.4 °C 12.3 °C 1017.8 hPa ESE 10.0 km/h 13.0 km/h 56% 0.0 mm CLR
21:00 21.3 °C 12.2 °C 1017.8 hPa ESE 9.7 km/h 14.5 km/h 56% 0.0 mm CLR
21:05 21.1 °C 12.2 °C 1017.9 hPa ESE 8.7 km/h 9.3 km/h 57% 0.0 mm CLR
21:10 21.0 °C 12.2 °C 1017.9 hPa East 7.6 km/h 9.3 km/h 57% 0.0 mm CLR
21:15 20.8 °C 12.2 °C 1017.9 hPa SE 7.6 km/h 11.1 km/h 58% 0.0 mm CLR
21:20 20.7 °C 12.4 °C 1017.8 hPa ESE 7.6 km/h 13.0 km/h 59% 0.0 mm CLR
21:25 20.6 °C 12.3 °C 1017.8 hPa East 7.6 km/h 7.4 km/h 59% 0.0 mm CLR
21:30 20.5 °C 12.4 °C 1017.8 hPa ENE 6.4 km/h 7.4 km/h 60% 0.0 mm CLR
21:35 20.4 °C 12.4 °C 1017.8 hPa ENE 6.4 km/h 6.9 km/h 60% 0.0 mm CLR
21:40 20.3 °C 12.3 °C 1017.8 hPa ENE 4.7 km/h 9.3 km/h 60% 0.0 mm CLR
21:45 20.2 °C 12.4 °C 1017.8 hPa NNE 4.7 km/h 9.3 km/h 61% 0.0 mm CLR
21:50 20.1 °C 12.3 °C 1017.9 hPa NE 6.9 km/h 9.3 km/h 61% 0.0 mm CLR
21:55 19.9 °C 12.2 °C 1017.9 hPa NNE 6.9 km/h 9.3 km/h 61% 0.0 mm CLR
22:00 19.9 °C 12.2 °C 1017.9 hPa NNE 8.0 km/h 11.3 km/h 61% 0.0 mm CLR
22:05 19.8 °C 12.3 °C 1018.0 hPa NE 6.4 km/h 12.2 km/h 62% 0.0 mm CLR
22:10 19.6 °C 12.4 °C 1018.0 hPa NE 8.4 km/h 13.0 km/h 63% 0.0 mm CLR
22:15 19.3 °C 12.3 °C 1018.0 hPa NE 8.4 km/h 13.0 km/h 64% 0.0 mm CLR
22:20 19.3 °C 12.3 °C 1018.1 hPa ENE 8.7 km/h 7.6 km/h 64% 0.0 mm CLR
22:25 19.2 °C 12.2 °C 1018.1 hPa ENE 8.7 km/h 11.1 km/h 64% 0.0 mm CLR
22:30 19.2 °C 12.2 °C 1018.1 hPa NNE 6.4 km/h 11.1 km/h 64% 0.0 mm CLR
22:35 18.9 °C 12.2 °C 1018.1 hPa NE 6.4 km/h 13.0 km/h 65% 0.0 mm CLR
22:40 18.8 °C 12.3 °C 1018.1 hPa NE 8.7 km/h 9.3 km/h 66% 0.0 mm CLR
22:45 18.7 °C 12.2 °C 1018.1 hPa North 8.7 km/h 9.3 km/h 66% 0.0 mm CLR
22:50 18.7 °C 12.4 °C 1018.3 hPa NNE 6.9 km/h 9.3 km/h 67% 0.0 mm CLR
22:55 18.6 °C 12.3 °C 1018.3 hPa NNE 6.9 km/h 9.3 km/h 67% 0.0 mm CLR
23:00 18.6 °C 12.3 °C 1018.3 hPa NNE 8.0 km/h 11.3 km/h 67% 0.0 mm CLR
23:05 18.6 °C 12.3 °C 1018.4 hPa NNE 6.9 km/h 11.1 km/h 67% 0.0 mm CLR
23:10 18.6 °C 12.3 °C 1018.4 hPa East 6.9 km/h 7.4 km/h 67% 0.0 mm CLR
23:15 18.6 °C 12.6 °C 1018.4 hPa NE 6.9 km/h 9.3 km/h 68% 0.0 mm CLR
23:20 18.5 °C 12.5 °C 1018.6 hPa NNE 5.8 km/h 9.3 km/h 68% 0.0 mm CLR
23:25 18.5 °C 12.7 °C 1018.6 hPa NE 5.8 km/h 3.9 km/h 69% 0.0 mm CLR
23:30 18.5 °C 12.5 °C 1018.6 hPa ESE 3.9 km/h 7.4 km/h 68% 0.0 mm CLR
23:35 18.6 °C 12.6 °C 1018.7 hPa SE 3.9 km/h 8.7 km/h 68% 0.0 mm CLR
23:40 18.8 °C 12.8 °C 1018.7 hPa ESE 5.0 km/h 11.9 km/h 68% 0.0 mm CLR
23:45 18.8 °C 12.8 °C 1018.7 hPa SE 5.0 km/h 13.0 km/h 68% 0.0 mm CLR
23:50 18.8 °C 12.8 °C 1018.7 hPa ESE 6.4 km/h 10.0 km/h 68% 0.0 mm CLR
23:55 18.8 °C 12.8 °C 1018.7 hPa ESE 6.4 km/h 9.3 km/h 68% 0.0 mm CLR
Murcia-Puente Tocinos, España
Compliments of Weather Underground - 2.75 mb

La estación de MeteoMurcia.com, publica sus datos en los siguientes proyectos:

Weather Underground PWS IMURCIAP2 Meteoclimatic www.awekas.at

W3Counter
Web Analytics